Regional Weather Roundup
Issued by NWS State College, PA

Home | Current Version | Previous Version | Text Only | Print | Product List | Glossary Off
Versions: 1 2 3 4 5 6 7 8 9 10 11 12 13 14 15 16 17 18 19 20 21 22 23 24 25 26 27 28 29 30 31 32 33 34 35 36 37 38 39 40 41 42 43 44 45 46 47 48 49 50

000
ASUS41 KCTP 290103
RWRCTP

REGIONAL WEATHER ROUNDUP
NATIONAL WEATHER SERVICE STATE COLLEGE PA
800 PM EST WED JAN 28 2015

Note: "fair" indicates few or no clouds below 12,000 feet with no
significant weather and/or obstructions to visibility.

* = STATION THAT DOES NOT REPORT PRECIPITATION /E.G. RAIN...SNOW...ETC/
    THUNDER OR FOG.

PAZ002>004-007>009-013>016-020>023-029>032-290200-
WESTERN PENNSYLVANIA

CITY           SKY/WX    TMP DP  RH WIND       PRES   REMARKS
ERIE           PTCLDY    14   9  80 SE3       30.31F
MEADVILLE      MOCLDY    18   0  45 CALM      30.26F
FRANKLIN*      MOCLDY    16   0  48 S5        30.28S WCI   9
NEW CASTLE     FAIR      16   4  59 CALM      30.31F
BEAVER COUNTY  CLEAR     19   9  63 S3        30.30R
BUTLER*        PTCLDY    18   5  57 S3        30.31S
PITTSBURGH INT MOCLDY    19  11  70 CALM      30.30S
PITTSBURGH     PTCLDY    19   6  57 SE5       30.30S WCI  12
INDIANA*       PTCLDY    10   9  92 CALM      30.34S
LATROBE        CLEAR     14   9  79 CALM      30.34R
WASHINGTON CO* PTCLDY    10   3  72 CALM      30.31F
$$

PAZ004>006-010>012-017>019-024>028-033>037-041-042-045-046-049>053-290200-
CENTRAL PENNSYLVANIA

CITY           SKY/WX    TMP DP  RH WIND       PRES   REMARKS
BRADFORD       CLEAR     12  -2  53 CALM      30.21S
DUBOIS         PTCLDY    16   4  59 SW8       30.24S WCI   5
CLEARFIELD     PTCLDY    16   6  65 S6        30.27R WCI   7
JOHNSTOWN      MOCLDY    14   5  67 SW3       30.23R
ALTOONA        PTCLDY    16   5  62 W7        30.27R WCI   6
STATE COLLEGE  CLEAR     21   7  53 W10       30.27R WCI  10
WILLIAMSPORT   CLEAR     22   0  38 W3        30.30R
SELINSGROVE    CLEAR     13   5  70 NW3       30.30R
FT INDIANTOWN  CLEAR     29   1  30 VRB3      30.27R
CAPITAL CITY   CLEAR     28   5  37 W7        30.29R
HARRISBURG     PTCLDY    22   6  50 NW6       30.28R WCI  14
YORK           CLEAR     15   3  59 W3        30.28R
$$

PAZ038>040-043-044-047-048-054-055-060>062-067>071-290200-
EASTERN PENNSYLVANIA

CITY           SKY/WX    TMP DP  RH WIND       PRES   REMARKS
SCRANTON       CLEAR     22   4  46 N8        30.27R WCI  12
MOUNT POCONO   CLEAR     18   2  49 NW18G29   30.13R WCI   2
ALLENTOWN      CLEAR     24   2  38 NW9       30.26R WCI  14
QUAKERTOWN*    CLEAR     27   1  33 N5        30.25R
READING        CLEAR     28   1  31 W5        30.27R
LANCASTER      FAIR      20   4  50 NW8       30.27R WCI  10
COATESVILLE    CLEAR     25   5  42 NW7       30.24R
POTTSTOWN      CLEAR     20   5  52 CALM      30.27R
BLUE BELL      CLEAR     30   3  31 NW7       30.24R
DOYLESTOWN     CLEAR     24   3  40 NW12      30.23R WCI  13
WILLOW GROVE   NOT AVBL
NORTH PHILA    CLEAR     30   1  29 NW9       30.27R
PHILADELPHIA   CLEAR     30   3  31 NW9       30.27R
$$


USA.gov is the U.S. government's official web portal to all federal, state and local government web resources and services.